727  
NZUS93 KARX 080710  
HRRWXR  
 
CURRENT HOURLY OBSERVATIONS ACROSS  
MUCH OF THE UPPER MISSISSIPPI VALLEY  
NATIONAL WEATHER SERVICE LA CROSSE WI  
100 AM CST THU DEC 08 2016  
 
   
..SOUTHEAST MINNESOTA
 
 
 
CITY SKY/WX TMP DP RH WIND PRES REMARKS  
ROCHESTER FLURRIES 13 7 77 W22 30.14S WCI -6  
ROCHESTER/MAYO CLOUDY 14 9 81 W22G31 30.15S WCI -5  
WINONA FLURRIES 18 10 73 W14G24 30.17S WCI 4  
AUSTIN MOCLDY 10 5 79 W17G26 30.18S WCI -7  
ALBERT LEA CLOUDY 16 9 73 W14G24 30.20S WCI 1  
DODGE CENTER LGT SNOW 12 9 85 W15G25 30.15S WCI -4  
PRESTON CLOUDY 11 5 77 W20G28 30.16R WCI -8  
OWATONNA LGT SNOW 12 9 85 W16G24 30.19R WCI -4  
FARIBAULT LGT SNOW 14 10 85 W17G25 30.18R WCI -3  

 
   
..ELSEWHERE IN MINNESOTA
 
 
 
CITY SKY/WX TMP DP RH WIND PRES REMARKS  
MINNEAPOLIS FLURRIES 16 10 77 W13G24 30.15S WCI 2  
INTNL FALLS CLOUDY 20 16 84 NW10 30.05R WCI 9  
DULUTH LGT SNOW 21 18 88 NW13 29.95R FOG WCI 9  
RED WING LGT SNOW 18 10 73 W15G24 30.14S WCI 3  
REDWOOD FALLS LGT SNOW 14 8 77 W20G28 30.26R WCI -3  
MANKATO FLURRIES 13 8 81 W20 30.22R WCI -5  
WORTHINGTON PTCLDY 7 2 80 W24G31 30.29R WCI -14  
FAIRMONT MOCLDY 10 5 80 W24G31 30.26S WCI -10  

 
   
..SOUTHWEST WISCONSIN
 
 
 
CITY SKY/WX TMP DP RH WIND PRES REMARKS  
LA CROSSE CLOUDY 18 8 65 W17 30.16S WCI 3  
PRAIRIE DU CHI CLOUDY 16 8 70 W13G22 30.21S WCI 3  
BOSCOBEL CLOUDY 19 8 62 W12G20 30.19S WCI 7  
LONE ROCK CLOUDY 20 9 62 W15 30.15R WCI 6  
PLATTEVILLE CLOUDY 18 11 75 W18G26 30.17R WCI 2  
FORT MC COY FLURRIES 17 12 78 W9 30.12S WCI 6  
CAMP DOUGLAS FLURRIES 18 11 74 W15 30.08R WCI 3  
MAUSTON-NEW LI CLOUDY 19 10 69 W14G22 30.08S WCI 6  
VIROQUA CLOUDY 15 9 76 W13G20 30.10S WCI 1  
WIS DELLS CLOUDY 18 9 68 W12G22 30.09S WCI 6  

 
   
..ELSEWHERE IN WISCONSIN
 
 
 
CITY SKY/WX TMP DP RH WIND PRES REMARKS  
MILWAUKEE FLURRIES 24 13 62 W9 30.08F WCI 14  
MADISON CLOUDY 20 11 68 W12G18 30.10S WCI 8  
GREEN BAY CLOUDY 23 14 68 W15G22 30.01R WCI 10  
EAU CLAIRE LGT SNOW 16 12 84 W13G21 30.08R FOG WCI 2  
BLACK RVR FLS FLURRIES 18 10 70 W12G17 30.10F WCI 5  
MEDFORD LGT SNOW 13 9 83 W14 29.97S WCI -2  
WAUSAU CLOUDY 15 8 73 W15 29.98S WCI 0  
WIS RAPIDS CLOUDY 18 11 74 W15G22 30.05R WCI 4  
MARSHFIELD LGT SNOW 15 9 76 W15G25 30.01R WCI 0  
RICE LAKE LGT SNOW 16 11 82 W13 30.06R WCI 2  

 
   
..NORTHEAST IOWA
 
 
 
CITY SKY/WX TMP DP RH WIND PRES REMARKS  
WATERLOO MOCLDY 14 5 67 NW13G30 30.26S WCI 0  
DUBUQUE CLOUDY 18 11 74 W20 30.19R WCI 2  
DECORAH CLOUDY 12 5 73 VRB7G21 30.17S WCI 2  
MASON CITY CLEAR 11 3 70 W21 30.26S WCI -8  
CHARLES CITY PTCLDY 12 5 73 W20G25 30.23S WCI -6  
OELWEIN MOCLDY 14 7 73 W22G29 30.23S WCI -4  

 
   
..ELSEWHERE IN IOWA
 
 
 
CITY SKY/WX TMP DP RH WIND PRES REMARKS  
DES MOINES FLURRIES 18 8 65 NW18 30.36S WCI 2  
IOWA CITY FLURRIES 20 11 68 W17 30.30F WCI 5  
FORT DODGE CLEAR 12 1 62 NW17G29 30.33S WCI -5  
MARSHALLTOWN PTCLDY 15 7 70 NW21G33 30.31R WCI -2  
CEDAR RAPIDS FLURRIES 17 12 80 W25G32 30.26S WCI -1  

 
   
..NORTHERN ILLINOIS
 
 
 
CITY SKY/WX TMP DP RH WIND PRES REMARKS  
CHICAGO-OHARE FLURRIES 24 14 65 W21G35 30.14S WCI 9  
CHICAGO-MIDWAY FLURRIES 25 13 60 W17G26 30.16S WCI 12  
MOLINE CLOUDY 21 11 65 W16 30.26R WCI 7  
ROCKFORD FLURRIES 23 14 68 W20 30.16F WCI 8  
PEORIA CLEAR 21 12 68 W12G23 30.29S WCI 9  

 
 
NOTE: "FAIR" INDICATES FEW OR NO CLOUDS BELOW 12,000 FEET WITH NO  
SIGNIFICANT WEATHER AND/OR OBSTRUCTIONS TO VISIBILITY. WIND  
SPEEDS ARE IN MILES-PER-HOUR.  
 
 
CLICK HERE TO GO TO PREVIOUS BULLETINS.

The Nexlab WI Page
The Nexlab IA Page
The Nexlab MN Page Main Text Page